Flag for Qatar Weather past 2 weeks in Al Khor, Qatar

Now
86 °F

Clear.


Feels Like: 83 °F
Forecast: 75 / 86 °F
Wind: 17 mph from Northwest

Location: Doha International Airport

Current Time: Apr 18, 2015 at 6:12:33 PM

Latest Report: Apr 18, 2015 at 5:00 PM


Visibility: 6 mi

Pressure: 29.83 "Hg

Humidity: 27%

Dew point: 48 °F

Location of Al KhorLocation

Historic Weather in Al Khor — Graph

°F

Al Khor temperature yesterday

Maximum temperature yesterday: 95 °F (at 10:00 AM)
Minimum temperature yesterday: 79 °F (at 1:00 AM)
Average temperature yesterday: 86 °F

Past Weeks' High & Low Weather Summary

 TemperatureHumidityPressure
High106 °F (Apr 12, 12:30 PM)83% (Apr 15, 11:30 PM)30.04 "Hg (Apr 15, 11:30 PM)
Low70 °F (Apr 4, 5:30 AM)13% (Apr 12, 12:30 PM)27.13 "Hg (Apr 17, 4:30 AM)
Average84 °F39%29.87 "Hg
* Reported Apr 3 5:00 PM — Apr 18 5:00 PM, Al Khor, Weather by CustomWeather, © 2015

Note: Actual official high and low records may vary slightly from our data, if they occured in-between our weather recording intervals... More about our weather records

Advertising

Al Khor weather history for previous 24 hours

 ConditionsComfort  
Time TempWeatherWind HumidityBarometerVisibility
5:00 PM
Sat, Apr 18
86 °FClear.17 mph27%29.83 "Hg6 mi
4:00 PM90 °FClear.17 mph24%29.80 "Hg4 mi
3:00 PM93 °FSunny.20 mph26%29.83 "Hg10 mi
2:00 PM93 °FClear.22 mph24%29.83 "Hg4 mi
1:30 PM93 °FDuststorm.20 mph24%29.83 "Hg3 mi
1:00 PM93 °FDuststorm.21 mph26%29.83 "Hg2 mi
12:30 PM93 °FDuststorm.21 mph26%29.86 "Hg3 mi
12:00 PM93 °FClear.20 mph30%29.86 "Hg4 mi
11:00 AM91 °FClear.13 mph28%29.89 "Hg6 mi
10:30 AM90 °FPassing clouds.15 mph31%29.89 "HgN/A
10:00 AM88 °FPassing clouds.13 mph35%29.89 "HgN/A
9:00 AM82 °FPassing clouds.14 mph48%29.89 "HgN/A
8:30 AM82 °FClear.13 mph51%29.89 "Hg6 mi
8:00 AM81 °FClear.12 mph54%29.89 "Hg6 mi
7:30 AM79 °FClear.10 mph58%29.86 "Hg5 mi
7:00 AM79 °FClear.10 mph58%29.86 "Hg5 mi
6:00 AM79 °FClear.6 mph58%29.83 "Hg4 mi
5:00 AM77 °FClear.3 mph61%29.83 "Hg4 mi
4:00 AM77 °FClear.9 mph57%29.83 "Hg4 mi
3:00 AM79 °FClear.7 mph54%29.83 "Hg4 mi
2:30 AM79 °FClear.7 mph51%29.83 "Hg4 mi
2:00 AM79 °FClear.8 mph48%29.83 "Hg4 mi
1:00 AM81 °FClear.7 mph45%29.86 "Hg4 mi
12:30 AM81 °FClear.8 mph45%29.86 "Hg5 mi
12:00 AM81 °FClear.8 mph45%29.89 "Hg6 mi
11:30 PM
Fri, Apr 17
82 °FClear.7 mph40%29.89 "Hg6 mi
11:00 PM81 °FClear.7 mph42%29.89 "Hg10 mi
10:00 PM81 °FPassing clouds.3 mph42%29.89 "HgN/A
9:00 PM82 °FClear.2 mph42%29.92 "Hg10 mi
8:30 PM82 °FPassing clouds.3 mph48%29.89 "HgN/A
8:00 PM82 °FClear.8 mph51%29.89 "Hg10 mi
7:30 PM82 °FClear.8 mph51%29.89 "Hg10 mi
7:00 PM82 °FClear.7 mph48%29.89 "Hg10 mi
6:30 PM84 °FClear.8 mph40%29.89 "Hg10 mi
6:00 PM86 °FClear.6 mph35%29.89 "Hg10 mi
Weather by CustomWeather, © 2015

See weather overviewHow to use our weather pages